Back to catalog

OT-FOREST-16 SIWITASGOHT

AliveScienceSSO
NORAD 68998·PAYLOAD·🇺🇸 United States

Launched May 3, 2026 from Vandenberg Space Force Base

Loading…

Next Passes (next 24 hours)

TLE

FreshSource: Space-Track

Epoch: Sep 14, 2026, 11:00 UTC

1 68998U 26100U   26257.45843828  .00001228  00000-0  12380-3 0  9993
2 68998  97.7265 153.3018 0004730 104.9181 255.2562 14.92896236 20017

Track OT-FOREST-16 SIWITASGOHT in real time with AllMySat

Download on the App Store